Theta_e
319 319 318 317 317 317 317 317 317 316 316 316 316 316 318 319 320 322 323 322 323 325 327 329 329 329 328 327 327 326 326 324 320 322 323 324 324 324 324 323 323 322 322
316 316 315 314 314 314 314 314 314 315 315 316 315 314 314 314 314 314 315 316 318 318 317 318 319 320 322 323 325 326 326 325 322 323 324 323 324 324 324 324 324 324 324
316 315 313 312 311 311 310 310 311 311 312 313 314 314 315 315 315 315 315 315 315 314 314 314 313 313 313 313 313 314 319 322 323 322 322 323 324 324 324 324 324 324 323
314 313 312 311 310 310 309 308 308 308 308 308 308 309 309 310 311 312 312 312 312 311 311 310 310 310 310 311 312 312 312 313 313 315 318 320 322 323 323 322 322 322 322
313 312 310 310 309 309 308 308 307 307 306 306 306 306 306 307 308 308 309 309 309 309 309 309 309 309 309 309 309 310 312 313 313 314 315 316 318 319 320 321 320 321 321
309 308 307 307 307 306 305 304 304 304 303 303 303 302 303 303 303 303 304 304 304 304 303 304 304 304 305 306 307 307 309 311 311 311 311 311 312 314 316 318 318 317 315
306 305 304 303 303 302 301 300 299 299 298 298 298 298 298 298 299 298 298 298 298 298 299 299 300 301 301 302 302 302 303 304 305 306 307 308 308 308 309 310 311 314 315
302 301 300 299 298 297 296 296 295 295 295 295 295 295 295 295 296 296 296 297 297 298 298 299 299 299 299 299 300 300 301 303 304 305 306 307 307 308 308 308 310 311 313
299 298 297 296 296 295 295 294 294 294 294 294 294 294 294 296 297 297 297 297 297 298 298 298 298 299 299 300 299 299 300 300 301 302 302 303 303 303 304 306 309 310 310
295 294 294 294 293 293 293 293 293 293 293 294 294 295 295 295 296 297 297 297 297 297 298 298 298 299 299 299 299 299 299 300 301 301 302 303 303 303 304 305 304 305 307
293 293 293 293 292 292 292 293 293 294 293 293 294 294 294 295 296 297 297 297 297 297 298 298 298 298 299 299 299 299 299 300 300 300 301 301 302 302 304 308 310 307 309
292 292 292 292 292 293 293 294 294 294 295 295 295 295 297 298 298 298 298 297 297 297 297 297 297 299 298 297 298 299 299 300 299 299 300 301 301 302 304 307 308 307 306
292 292 292 292 292 294 293 293 293 295 294 294 294 295 296 297 298 298 298 298 298 297 297 297 296 296 295 296 296 297 297 297 297 298 299 300 300 301 303 304 305 306 305
291 291 291 292 293 293 294 294 294 294 295 295 295 295 296 297 298 298 298 297 297 297 297 297 296 296 295 295 296 298 298 297 297 299 299 300 300 301 302 303 304 304 307
291 291 291 292 292 293 295 296 296 299 297 295 296 296 296 297 299 299 302 301 300 298 297 296 296 296 296 297 297 298 298 299 299 300 300 301 302 302 302 303 304 305 306
290 290 291 291 293 294 296 297 299 299 300 300 300 301 299 298 300 305 306 304 303 300 298 297 297 297 298 299 300 301 302 302 302 303 303 303 304 305 303 303 304 305 307
290 291 291 291 293 294 294 295 296 298 299 300 300 300 298 299 303 305 305 306 305 302 299 298 299 300 301 301 302 303 303 304 304 305 306 307 306 306 305 305 306 307 308
290 291 291 291 292 293 294 295 297 297 296 296 298 297 297 298 300 301 302 305 303 303 303 301 302 303 303 304 306 309 315 315 314 312 309 310 309 307 306 307 309 309 310
290 290 291 291 292 292 292 294 295 293 293 294 296 295 294 297 298 299 301 299 301 302 302 304 306 308 310 312 315 315 316 313 312 312 313 310 309 309 309 309 309 310 312
290 290 290 290 290 290 291 292 292 292 293 293 293 293 291 292 294 295 296 296 298 299 301 304 307 307 305 305 308 311 316 315 313 312 311 310 310 310 310 310 310 309 311
289 290 289 289 289 289 290 291 291 291 291 291 291 291 290 291 292 293 294 295 297 302 305 304 303 301 301 301 303 305 310 316 315 312 312 311 311 311 311 310 310 311 313
288 288 288 288 288 288 289 289 289 289 289 289 289 289 289 290 291 291 292 294 296 301 301 299 298 298 297 297 298 299 303 311 317 317 315 313 312 312 312 312 312 314 314
288 288 288 288 288 288 288 288 288 288 288 288 288 288 288 289 289 290 291 292 295 296 296 296 296 297 297 298 300 299 301 308 314 318 317 317 316 316 316 317 317 315 314
288 288 287 287 287 287 287 287 287 287 287 287 287 287 287 288 288 289 289 291 292 293 294 295 295 296 298 302 304 306 307 310 313 317 318 317 317 318 318 318 317 314 311
287 287 287 287 287 287 287 286 286 286 286 286 286 286 286 287 287 288 288 289 290 291 292 293 293 295 298 299 302 306 309 312 312 314 318 318 316 317 318 317 314 312 311
286 286 286 286 286 286 286 286 285 285 285 285 285 285 285 286 286 286 287 287 288 289 290 290 292 293 296 298 300 303 307 309 310 312 312 313 317 318 318 317 315 314 312
Wind_Speed
29 23 22 20 19 18 17 15 15 14 16 16 16 15 15 13 10 8 8 8 8 11 12 16 18 17 21 23 22 22 22 22 10 17 25 29 29 31 32 31 27 28 32
26 23 22 19 18 18 17 16 15 15 14 14 15 16 15 15 15 13 12 12 13 14 13 12 13 8 10 12 14 19 21 23 20 18 19 24 26 29 33 33 32 29 28
22 20 20 20 19 18 17 17 17 17 17 17 17 18 18 18 18 16 14 11 9 7 7 8 11 12 14 16 16 15 14 17 17 20 18 20 23 26 32 34 33 33 29
21 20 18 17 16 15 15 15 15 15 15 14 14 14 15 15 15 14 14 13 14 14 13 12 14 16 17 16 17 19 20 22 20 20 16 17 19 22 26 28 29 30 32
19 16 15 12 13 14 16 17 18 18 19 19 21 20 19 18 17 18 19 19 18 18 18 19 18 18 18 19 19 21 21 23 22 20 15 14 16 17 18 24 27 28 29
17 16 13 12 12 13 14 16 18 19 21 22 24 25 27 25 25 24 25 26 25 24 26 26 26 27 28 28 27 25 21 18 18 18 16 13 17 16 18 20 23 18 6
17 14 13 12 13 14 16 19 22 23 25 26 27 26 27 27 28 26 24 25 28 29 32 31 30 26 24 27 29 30 31 30 32 30 26 26 25 26 26 26 26 23 20
17 15 15 16 19 21 23 24 26 25 24 24 23 22 22 22 21 20 19 19 20 20 20 20 20 21 21 22 21 21 21 21 25 26 25 27 28 29 29 28 28 28 29
20 19 21 24 26 26 26 26 25 24 25 24 23 22 22 22 20 19 17 16 14 16 17 17 17 19 19 19 19 21 22 24 22 21 24 27 30 33 32 29 20 16 13
18 20 21 21 21 20 21 21 21 20 19 21 23 22 21 22 22 19 18 19 17 18 18 18 20 20 20 20 21 23 19 21 22 20 20 20 22 24 24 28 30 24 20
18 17 17 17 16 15 18 17 19 21 21 20 20 24 21 20 22 21 20 20 20 19 18 20 19 21 20 21 22 26 24 24 25 22 22 24 23 24 24 22 25 27 22
16 16 16 16 15 15 17 17 18 19 20 21 22 24 25 27 26 25 22 19 19 21 21 21 24 21 25 29 27 28 27 26 27 24 22 24 24 23 22 21 20 19 17
17 17 16 16 15 15 16 17 18 18 19 19 19 19 24 28 29 27 23 21 19 21 23 24 26 29 30 32 34 34 35 31 26 24 24 27 26 27 24 24 23 22 21
13 14 15 16 17 18 19 19 19 20 20 17 17 19 23 26 28 25 21 22 21 22 23 25 25 27 30 31 30 29 29 29 27 25 26 28 24 23 25 26 22 21 16
13 13 15 16 16 19 20 20 21 21 20 21 24 23 22 24 31 34 27 23 19 20 22 25 22 20 23 24 25 26 26 25 24 28 26 23 20 18 20 22 21 18 14
12 13 14 15 17 19 20 25 20 21 22 21 21 22 25 26 28 25 21 19 17 17 19 18 21 21 22 25 26 25 24 24 26 25 24 24 20 18 16 17 18 17 12
12 12 13 14 16 19 18 19 19 27 23 22 23 24 28 26 23 24 26 23 17 15 17 20 21 23 26 26 28 27 26 30 27 25 25 24 21 17 17 13 15 13 12
11 10 12 14 15 17 19 18 17 16 19 25 28 27 30 30 26 26 24 23 24 19 23 23 24 24 26 25 27 26 22 18 11 14 21 22 22 18 16 13 13 13 12
11 12 14 13 13 15 15 16 14 17 17 21 25 28 33 31 27 25 24 22 22 24 25 25 24 24 23 23 22 22 22 18 20 18 17 20 21 18 13 11 14 7 5
10 11 12 12 13 14 14 15 15 17 18 19 21 24 31 30 27 28 28 26 24 25 28 29 27 26 26 25 24 23 21 19 21 19 19 20 17 15 14 14 14 11 8
9 10 11 12 12 12 13 14 17 18 18 19 21 24 29 22 22 24 26 28 30 31 27 28 28 29 29 29 29 28 25 22 19 19 15 13 13 12 11 11 11 10 8
9 10 11 12 11 12 13 14 16 17 18 19 22 25 28 24 24 26 28 29 32 28 30 33 35 34 34 31 31 28 27 24 21 15 14 11 9 10 11 12 12 9 9
12 12 13 14 13 14 15 17 17 18 18 20 22 24 26 27 27 27 28 30 30 30 32 31 33 39 40 39 38 38 33 26 19 14 12 10 8 10 10 12 13 12 10
16 16 16 15 16 16 16 17 18 19 20 21 22 23 25 26 27 29 30 30 30 31 32 34 37 40 40 41 41 40 39 34 23 12 6 9 10 10 9 8 8 10 10
18 17 17 17 17 17 17 19 20 21 21 22 24 25 25 26 27 31 31 30 28 29 32 35 37 39 38 38 37 35 32 31 32 27 16 2 2 3 4 5 8 9 10
20 19 19 19 20 20 20 20 22 23 23 24 25 26 27 27 28 30 30 31 32 31 32 34 35 37 39 39 37 33 28 26 26 25 25 22 15 10 7 8 8 8 8
Wind_Direction
93 89 81 71 61 55 51 42 32 24 21 14 10 9 9 11 11 355 343 346 333 317 304 289 272 278 283 268 270 269 262 252 245 263 258 264 267 272 275 276 273 273 285
87 78 65 57 49 43 37 30 20 13 7 0 355 353 351 346 336 338 337 329 310 308 303 307 305 309 293 301 296 287 281 271 246 263 260 256 255 266 270 274 275 274 276
78 68 58 49 41 33 27 21 15 11 6 358 352 349 343 339 331 332 330 323 312 301 305 301 306 307 303 299 299 299 294 284 270 267 279 273 267 261 261 266 270 275 273
67 58 52 40 31 25 19 15 13 11 6 2 359 352 347 340 333 329 325 318 309 305 304 302 298 298 298 299 296 289 289 284 281 279 274 274 271 269 264 262 267 271 273
69 61 48 39 21 7 1 356 350 345 344 342 339 336 335 331 324 322 317 314 310 305 302 300 301 296 293 292 288 286 284 280 273 263 256 255 254 248 242 263 261 268 273
76 70 57 40 25 13 358 351 341 336 332 328 323 320 317 314 309 306 302 299 297 297 297 296 293 292 289 288 284 277 272 276 275 270 266 251 251 253 261 266 270 266 266
69 56 39 19 4 353 341 334 332 329 324 321 319 316 312 310 308 305 300 293 293 293 291 291 289 285 282 280 278 276 275 271 266 264 260 259 262 260 263 261 261 261 262
48 30 12 357 347 340 338 336 337 336 335 334 332 330 324 321 319 316 314 309 306 303 300 297 294 296 295 288 281 280 276 269 264 262 263 265 264 264 261 261 260 260 266
21 4 352 345 342 341 341 342 344 344 343 343 337 334 330 329 331 325 321 317 308 307 308 304 299 297 303 301 293 288 284 280 274 265 262 264 263 262 261 268 266 254 262
2 350 346 345 345 346 347 350 352 348 339 340 335 334 330 328 333 331 324 314 306 308 309 300 299 294 295 300 291 284 273 272 276 275 274 274 271 274 267 258 249 245 245
352 353 353 358 359 352 353 357 354 350 346 338 333 339 330 325 331 328 321 313 301 298 299 297 293 290 288 291 286 273 264 270 273 274 273 275 269 266 268 265 252 228 233
360 2 3 6 6 357 354 352 352 351 344 339 333 329 336 336 332 327 321 310 302 294 290 289 293 287 288 288 283 278 274 273 270 263 260 259 255 254 252 243 245 247 255
4 6 8 6 3 357 353 348 343 346 335 327 323 319 318 324 321 322 320 314 307 294 292 298 296 290 288 285 280 277 276 269 257 253 252 253 250 251 252 250 249 250 261
6 4 5 4 359 1 358 356 344 334 326 321 317 315 314 316 317 320 318 312 309 301 295 291 291 290 286 285 291 290 279 262 249 249 248 251 252 246 245 247 244 253 252
6 3 4 2 351 352 0 354 351 349 334 313 312 313 309 313 320 328 330 324 315 304 299 296 297 293 292 289 283 276 270 259 245 245 243 245 240 231 232 237 239 240 226
357 355 354 343 355 2 354 350 2 354 356 355 352 349 346 333 335 347 339 330 311 309 294 290 289 287 283 286 285 281 277 266 250 244 240 236 229 213 212 220 223 221 209
355 1 350 352 354 349 349 338 328 343 352 359 358 351 346 346 351 359 358 352 340 319 294 291 283 286 286 289 288 291 284 275 263 248 233 226 217 202 191 193 196 197 203
6 355 351 348 344 343 344 335 333 338 337 335 351 349 348 354 359 359 353 343 340 332 308 297 294 296 295 293 294 296 314 334 329 278 237 217 186 170 175 186 185 190 198
5 359 354 347 345 339 338 351 348 345 343 337 342 349 352 359 4 2 359 351 337 328 324 319 320 314 314 329 338 346 358 23 17 25 79 124 139 151 162 168 178 179 152
12 8 4 2 356 354 356 359 351 353 350 346 345 347 349 359 357 350 349 345 339 334 333 335 353 10 8 2 2 13 17 28 37 48 85 110 130 147 154 167 181 181 183
17 13 13 18 11 7 6 2 359 358 352 349 347 349 0 356 348 351 350 350 351 354 7 9 10 12 12 7 10 17 21 21 47 64 75 101 129 140 158 162 170 159 160
41 35 34 29 20 20 19 9 7 2 357 354 353 357 4 6 3 2 359 359 5 6 12 13 15 18 19 16 13 20 25 33 33 52 76 84 114 128 136 142 145 146 145
61 56 50 42 33 30 26 21 13 10 5 4 4 5 7 6 4 6 6 11 16 14 16 18 16 21 25 29 33 33 33 27 27 38 62 86 108 116 130 137 126 127 133
67 60 53 46 40 35 28 22 18 19 18 13 12 12 11 9 7 9 11 17 18 20 20 23 22 23 25 28 29 31 35 41 42 54 62 72 94 104 106 110 117 119 121
68 61 55 49 45 37 33 29 25 24 24 20 15 14 14 15 13 15 15 18 20 20 24 25 23 23 23 23 25 28 33 40 46 54 55 100 81 93 115 112 117 113 117
70 61 54 51 47 41 36 33 29 26 24 22 19 18 16 16 17 16 14 16 20 23 25 23 23 21 22 21 20 19 23 27 30 39 45 48 51 64 94 108 123 130 138